パンスターズ彗星

C/2014 W11 ( PanSTARRS )

English version
Home page
Updated on March 3, 2018

---------------------------------------------------------------------

・ プロフィール

発見日 2014年11月26日
発見光度 18.6等
発見者 Pan-STARRS 1 telescope (Haleakala)

・ 写真集

・ 軌道要素

Epoch 2015 June 27.0 TT = JDT 2457200.5
T 2015 June 17.32326 TT                                 MPCW
q   3.4268068            (2000.0)            P               Q
n   0.03217086     Peri.  225.64095     -0.93300827     -0.30062689
a   9.7910128      Node   295.93653     +0.35952003     -0.80242683
e   0.6500049      Incl.   12.70537     -0.01552129     -0.51549458
P  30.64
From 1005 observations 2014 Nov. 3-2016 Sept. 28, mean residual 0".4.

・ 光度変化

        m1 = -42   + 5 logΔ + 100 log r          [ ,0]  (              〜2015年 6月17日)
        m1 =  -2.0 + 5 logΔ +  25 log r(t - 70)  [0, ]  (2015年 6月17日〜              )

---------------------------------------------------------------------

軌道要素はM.P.E.C. 2016-V116に掲載されたものです。
光度グラフはComet for Windowsで作成したものです。

---------------------------------------------------------------------

Copyright(C) Seiichi Yoshida (comet@aerith.net). All rights reserved.